Time,TemperatureF,DewpointF,PressureIn,WindDirection,WindDirectionDegrees,WindSpeedMPH,WindSpeedGustMPH,Humidity,HourlyPrecipIn,Conditions,Clouds,dailyrainin,SolarRadiationWatts/m^2,SoftwareType,DateUTC
2013-01-08 00:04:00,37.0,23.0,30.65,SSE,150,7.0,15.0,56,0.00,,,0.00,0.000000,,2013-01-08 05:04:00,
2013-01-08 00:33:00,35.0,21.0,30.65,ESE,111,6.0,20.0,56,0.00,,,0.00,0.000000,,2013-01-08 05:33:00,
2013-01-08 00:43:00,35.0,21.0,30.65,ESE,111,6.0,20.0,56,0.00,,,0.00,0.000000,,2013-01-08 05:43:00,
2013-01-08 00:53:00,35.0,21.0,30.65,ESE,111,6.0,20.0,56,0.00,,,0.00,0.000000,,2013-01-08 05:53:00,
2013-01-08 01:02:00,35.0,21.0,30.65,ESE,111,6.0,20.0,56,0.00,,,0.00,0.000000,,2013-01-08 06:02:00,
2013-01-08 01:33:00,34.0,22.0,30.65,ESE,106,4.0,10.0,61,0.00,,,0.00,0.000000,,2013-01-08 06:33:00,
2013-01-08 01:43:00,34.0,22.0,30.65,ESE,106,4.0,10.0,61,0.00,,,0.00,0.000000,,2013-01-08 06:43:00,
2013-01-08 01:53:00,34.0,22.0,30.65,ESE,106,4.0,10.0,61,0.00,,,0.00,0.000000,,2013-01-08 06:53:00,
2013-01-08 02:02:00,34.0,22.0,30.65,ESE,106,4.0,10.0,61,0.00,,,0.00,0.000000,,2013-01-08 07:02:00,
2013-01-08 02:32:00,33.0,21.0,30.65,ESE,118,7.0,13.0,62,0.00,,,0.00,0.000000,,2013-01-08 07:32:00,
2013-01-08 02:42:00,33.0,21.0,30.65,ESE,118,7.0,13.0,62,0.00,,,0.00,0.000000,,2013-01-08 07:42:00,
2013-01-08 02:52:00,33.0,21.0,30.65,ESE,118,7.0,13.0,62,0.00,,,0.00,0.000000,,2013-01-08 07:52:00,
2013-01-08 03:02:00,33.0,21.0,30.65,ESE,118,7.0,13.0,62,0.00,,,0.00,0.000000,,2013-01-08 08:02:00,
2013-01-08 03:32:00,32.0,22.0,30.65,SE,132,3.0,11.0,65,0.00,,,0.00,0.000000,,2013-01-08 08:32:00,
2013-01-08 03:42:00,32.0,22.0,30.65,SE,132,3.0,11.0,65,0.00,,,0.00,0.000000,,2013-01-08 08:42:00,
2013-01-08 03:53:00,32.0,22.0,30.65,SE,132,3.0,11.0,65,0.00,,,0.00,0.000000,,2013-01-08 08:53:00,
2013-01-08 04:02:00,32.0,22.0,30.65,SE,132,3.0,11.0,65,0.00,,,0.00,0.000000,,2013-01-08 09:02:00,
2013-01-08 04:33:00,29.0,22.0,30.64,East,100,7.0,12.0,75,0.00,,,0.00,0.000000,,2013-01-08 09:33:00,
2013-01-08 04:42:00,29.0,22.0,30.64,East,100,7.0,12.0,75,0.00,,,0.00,0.000000,,2013-01-08 09:42:00,
2013-01-08 04:53:00,29.0,22.0,30.64,East,100,7.0,12.0,75,0.00,,,0.00,0.000000,,2013-01-08 09:53:00,
2013-01-08 05:02:00,29.0,22.0,30.64,East,100,7.0,12.0,75,0.00,,,0.00,0.000000,,2013-01-08 10:02:00,
2013-01-08 05:33:00,27.0,22.0,30.63,East,91,3.0,9.0,81,0.00,,,0.00,0.000000,,2013-01-08 10:33:00,
2013-01-08 05:43:00,27.0,22.0,30.63,East,91,3.0,9.0,81,0.00,,,0.00,0.000000,,2013-01-08 10:43:00,
2013-01-08 05:53:00,27.0,22.0,30.63,East,91,3.0,9.0,81,0.00,,,0.00,0.000000,,2013-01-08 10:53:00,
2013-01-08 06:02:00,27.0,22.0,30.63,East,91,3.0,9.0,81,0.00,,,0.00,0.000000,,2013-01-08 11:02:00,
2013-01-08 06:33:00,29.0,23.0,30.64,East,98,4.0,7.0,77,0.00,,,0.00,0.000000,,2013-01-08 11:33:00,
2013-01-08 06:43:00,29.0,23.0,30.64,East,98,4.0,7.0,77,0.00,,,0.00,0.000000,,2013-01-08 11:43:00,
2013-01-08 06:53:00,29.0,23.0,30.64,East,98,4.0,7.0,77,0.00,,,0.00,0.000000,,2013-01-08 11:53:00,
2013-01-08 07:03:00,29.0,23.0,30.64,East,98,4.0,7.0,77,0.00,,,0.00,0.000000,,2013-01-08 12:03:00,
2013-01-08 07:33:00,27.0,22.0,30.65,NNW,347,2.0,4.0,82,0.00,,,0.00,0.000000,,2013-01-08 12:33:00,
2013-01-08 07:43:00,27.0,22.0,30.65,NNW,347,2.0,4.0,82,0.00,,,0.00,0.000000,,2013-01-08 12:43:00,
2013-01-08 07:53:00,27.0,22.0,30.65,NNW,347,2.0,4.0,82,0.00,,,0.00,0.000000,,2013-01-08 12:53:00,
2013-01-08 08:03:00,27.0,22.0,30.65,NNW,347,2.0,4.0,82,0.00,,,0.00,0.000000,,2013-01-08 13:03:00,
2013-01-08 08:33:00,28.0,24.0,30.69,West,269,1.0,4.0,83,0.00,,,0.00,6.000000,,2013-01-08 13:33:00,
2013-01-08 08:43:00,28.0,24.0,30.69,West,269,1.0,4.0,83,0.00,,,0.00,6.000000,,2013-01-08 13:43:00,
2013-01-08 08:53:00,28.0,24.0,30.69,West,269,1.0,4.0,83,0.00,,,0.00,6.000000,,2013-01-08 13:53:00,
2013-01-08 09:03:00,28.0,24.0,30.69,West,269,1.0,4.0,83,0.00,,,0.00,6.000000,,2013-01-08 14:03:00,
2013-01-08 09:33:00,33.0,26.0,30.71,ESE,104,2.0,5.0,74,0.00,,,0.00,56.000000,,2013-01-08 14:33:00,
2013-01-08 09:43:00,33.0,26.0,30.71,ESE,104,2.0,5.0,74,0.00,,,0.00,56.000000,,2013-01-08 14:43:00,
2013-01-08 09:53:00,33.0,26.0,30.71,ESE,104,2.0,5.0,74,0.00,,,0.00,56.000000,,2013-01-08 14:53:00,
2013-01-08 10:03:00,33.0,26.0,30.71,ESE,104,2.0,5.0,74,0.00,,,0.00,56.000000,,2013-01-08 15:03:00,
2013-01-08 10:33:00,39.0,27.0,30.73,NW,313,1.0,5.0,61,0.00,,,0.00,161.000000,,2013-01-08 15:33:00,
2013-01-08 10:43:00,39.0,27.0,30.73,NW,313,1.0,5.0,61,0.00,,,0.00,161.000000,,2013-01-08 15:43:00,
2013-01-08 10:53:00,39.0,27.0,30.73,NW,313,1.0,5.0,61,0.00,,,0.00,161.000000,,2013-01-08 15:53:00,
2013-01-08 11:03:00,39.0,27.0,30.73,NW,313,1.0,5.0,61,0.00,,,0.00,161.000000,,2013-01-08 16:03:00,
2013-01-08 11:34:00,45.0,29.0,30.70,West,265,1.0,4.0,53,0.00,,,0.00,276.000000,,2013-01-08 16:34:00,
2013-01-08 11:43:00,45.0,29.0,30.70,West,265,1.0,4.0,53,0.00,,,0.00,276.000000,,2013-01-08 16:43:00,
2013-01-08 11:53:00,45.0,29.0,30.70,West,265,1.0,4.0,53,0.00,,,0.00,276.000000,,2013-01-08 16:53:00,
2013-01-08 12:03:00,45.0,29.0,30.70,West,265,1.0,4.0,53,0.00,,,0.00,276.000000,,2013-01-08 17:03:00,
2013-01-08 12:34:00,48.0,27.0,30.68,West,264,2.0,7.0,43,0.00,,,0.00,354.000000,,2013-01-08 17:34:00,
2013-01-08 12:43:00,48.0,27.0,30.68,West,264,2.0,7.0,43,0.00,,,0.00,354.000000,,2013-01-08 17:43:00,
2013-01-08 12:54:00,48.0,27.0,30.68,West,264,2.0,7.0,43,0.00,,,0.00,354.000000,,2013-01-08 17:54:00,
2013-01-08 13:04:00,48.0,27.0,30.68,West,264,2.0,7.0,43,0.00,,,0.00,354.000000,,2013-01-08 18:04:00,
2013-01-08 13:33:00,56.0,29.0,30.64,SSE,168,3.0,10.0,35,0.00,,,0.00,486.000000,,2013-01-08 18:33:00,
2013-01-08 13:43:00,56.0,29.0,30.64,SSE,168,3.0,10.0,35,0.00,,,0.00,486.000000,,2013-01-08 18:43:00,
2013-01-08 13:53:00,56.0,29.0,30.64,SSE,168,3.0,10.0,35,0.00,,,0.00,486.000000,,2013-01-08 18:53:00,
2013-01-08 14:03:00,56.0,29.0,30.64,SSE,168,3.0,10.0,35,0.00,,,0.00,486.000000,,2013-01-08 19:03:00,
2013-01-08 14:33:00,56.0,29.0,30.61,WSW,255,5.0,10.0,35,0.00,,,0.00,346.000000,,2013-01-08 19:33:00,
2013-01-08 14:43:00,56.0,29.0,30.61,WSW,255,5.0,10.0,35,0.00,,,0.00,346.000000,,2013-01-08 19:43:00,
2013-01-08 14:53:00,56.0,29.0,30.61,WSW,255,5.0,10.0,35,0.00,,,0.00,346.000000,,2013-01-08 19:53:00,
2013-01-08 15:03:00,56.0,29.0,30.61,WSW,255,5.0,10.0,35,0.00,,,0.00,346.000000,,2013-01-08 20:03:00,
2013-01-08 15:33:00,61.0,34.0,30.60,South,189,3.0,10.0,36,0.00,,,0.00,322.000000,,2013-01-08 20:33:00,
2013-01-08 15:43:00,61.0,34.0,30.60,South,189,3.0,10.0,36,0.00,,,0.00,322.000000,,2013-01-08 20:43:00,
2013-01-08 15:54:00,61.0,34.0,30.60,South,189,3.0,10.0,36,0.00,,,0.00,322.000000,,2013-01-08 20:54:00,
2013-01-08 16:03:00,61.0,34.0,30.60,South,189,3.0,10.0,36,0.00,,,0.00,322.000000,,2013-01-08 21:03:00,
2013-01-08 16:33:00,59.0,35.0,30.61,South,170,5.0,10.0,41,0.00,,,0.00,61.000000,,2013-01-08 21:33:00,
2013-01-08 16:43:00,59.0,35.0,30.61,South,170,5.0,10.0,41,0.00,,,0.00,61.000000,,2013-01-08 21:43:00,
2013-01-08 16:53:00,59.0,35.0,30.61,South,170,5.0,10.0,41,0.00,,,0.00,61.000000,,2013-01-08 21:53:00,
2013-01-08 17:04:00,59.0,35.0,30.61,South,170,5.0,10.0,41,0.00,,,0.00,61.000000,,2013-01-08 22:04:00,
2013-01-08 17:33:00,55.0,35.0,30.61,South,178,3.0,11.0,47,0.00,,,0.00,91.000000,,2013-01-08 22:33:00,
2013-01-08 17:43:00,55.0,35.0,30.61,South,178,3.0,11.0,47,0.00,,,0.00,91.000000,,2013-01-08 22:43:00,
2013-01-08 17:53:00,55.0,35.0,30.61,South,178,3.0,11.0,47,0.00,,,0.00,91.000000,,2013-01-08 22:53:00,
2013-01-08 18:03:00,55.0,35.0,30.61,South,178,3.0,11.0,47,0.00,,,0.00,91.000000,,2013-01-08 23:03:00,
2013-01-08 18:33:00,51.0,38.0,30.62,SSE,147,5.0,10.0,60,0.00,,,0.00,13.000000,,2013-01-08 23:33:00,
2013-01-08 18:43:00,51.0,38.0,30.62,SSE,147,5.0,10.0,60,0.00,,,0.00,13.000000,,2013-01-08 23:43:00,
2013-01-08 18:53:00,51.0,38.0,30.62,SSE,147,5.0,10.0,60,0.00,,,0.00,13.000000,,2013-01-08 23:53:00,
2013-01-08 19:03:00,51.0,38.0,30.62,SSE,147,5.0,10.0,60,0.00,,,0.00,13.000000,,2013-01-09 00:03:00,
2013-01-08 19:33:00,49.0,37.0,30.63,SE,140,5.0,9.0,64,0.00,,,0.00,0.000000,,2013-01-09 00:33:00,
2013-01-08 19:43:00,49.0,37.0,30.63,SE,140,5.0,9.0,64,0.00,,,0.00,0.000000,,2013-01-09 00:43:00,
2013-01-08 19:53:00,49.0,37.0,30.63,SE,140,5.0,9.0,64,0.00,,,0.00,0.000000,,2013-01-09 00:53:00,
2013-01-08 20:02:00,49.0,37.0,30.63,SE,140,5.0,9.0,64,0.00,,,0.00,0.000000,,2013-01-09 01:02:00,
2013-01-08 20:33:00,43.0,36.0,30.65,ESE,114,1.0,7.0,75,0.00,,,0.00,0.000000,,2013-01-09 01:33:00,
2013-01-08 20:43:00,43.0,36.0,30.65,ESE,114,1.0,7.0,75,0.00,,,0.00,0.000000,,2013-01-09 01:43:00,
2013-01-08 20:53:00,43.0,36.0,30.65,ESE,114,1.0,7.0,75,0.00,,,0.00,0.000000,,2013-01-09 01:53:00,
2013-01-08 21:02:00,43.0,36.0,30.65,ESE,114,1.0,7.0,75,0.00,,,0.00,0.000000,,2013-01-09 02:02:00,
2013-01-08 21:33:00,41.0,37.0,30.65,NE,37,1.0,4.0,84,0.00,,,0.00,0.000000,,2013-01-09 02:33:00,
2013-01-08 21:43:00,41.0,37.0,30.65,NE,37,1.0,4.0,84,0.00,,,0.00,0.000000,,2013-01-09 02:43:00,
2013-01-08 21:53:00,41.0,37.0,30.65,NE,37,1.0,4.0,84,0.00,,,0.00,0.000000,,2013-01-09 02:53:00,
2013-01-08 22:03:00,41.0,37.0,30.65,NE,37,1.0,4.0,84,0.00,,,0.00,0.000000,,2013-01-09 03:03:00,
2013-01-08 22:33:00,41.0,37.0,30.66,ESE,123,1.0,3.0,87,0.00,,,0.00,0.000000,,2013-01-09 03:33:00,
2013-01-08 22:43:00,41.0,37.0,30.66,ESE,123,1.0,3.0,87,0.00,,,0.00,0.000000,,2013-01-09 03:43:00,
2013-01-08 22:53:00,41.0,37.0,30.66,ESE,123,1.0,3.0,87,0.00,,,0.00,0.000000,,2013-01-09 03:53:00,
2013-01-08 23:02:00,41.0,37.0,30.66,ESE,123,1.0,3.0,87,0.00,,,0.00,0.000000,,2013-01-09 04:02:00,
2013-01-08 23:33:00,37.0,35.0,30.67,SE,137,1.0,5.0,91,0.00,,,0.00,0.000000,,2013-01-09 04:33:00,
2013-01-08 23:43:00,37.0,35.0,30.67,SE,137,1.0,5.0,91,0.00,,,0.00,0.000000,,2013-01-09 04:43:00,
2013-01-08 23:53:00,37.0,35.0,30.67,SE,137,1.0,5.0,91,0.00,,,0.00,0.000000,,2013-01-09 04:53:00,